Armant, Egypt

8:52 PM EET on October 19, 2017 (GMT +0200)
Armant

Weather History for 62405 - August, 2013

Change the Weather History Date:

Wednesday, August 21, 2013

  Actual Average Record
Temperature  
Mean Temperature 92 °F -  
Max Temperature 105 °F 100 °F - ()
Min Temperature 79 °F 73 °F - ()
Cooling Degree Days 27    
Growing Degree Days 42 (Base 50)    
Moisture  
Dew Point 61 °F    
Average Humidity 34    
Maximum Humidity 48    
Minimum Humidity 16    
Precipitation  
Precipitation 0.00 in 0.00 in - ()
Sea Level Pressure  
Sea Level Pressure 29.73 in    
Wind  
Wind Speed 3 mph ()    
Max Wind Speed 9 mph    
Max Gust Speed -    
Visibility 6.0 miles    
Events      
T = Trace of Precipitation, MM = Missing Value Source: Averaged Metar Reports

Daily Weather History Graph

Daily Weather History Graph

Search for Another Location

Airport or City:

Trip Planner

Search our weather history database for the weather conditions in past years. The results will help you decide how hot, cold, wet, or windy it might be!

Date:

Astronomy

Aug. 21, 2013 Rise Set
Actual Time 5:24 AM EET 6:19 PM EET
Civil Twilight 5:01 AM EET 6:43 PM EET
Nautical Twilight 4:33 AM EET 7:10 PM EET
Astronomical Twilight 4:04 AM EET 7:39 PM EET
Moon 6:26 PM EET (8/21) 5:34 AM EET (8/21)
Length of Visible Light 13h 41m
Length of Day
12h 54m
Full, 100% of the Moon is Illuminated
Aug 21
Full
Aug 28
Last Quarter
Sep 5
New
Sep 12
First Quarter
Sep 19
Full

Hourly Weather History & Observations

Time (EET) Temp. Heat Index Dew Point Humidity Pressure Visibility Wind Dir Wind Speed Gust Speed Precip Events Conditions
12:00 AM 87.8 °F 87.6 °F 60.8 °F 40% 29.71 in - SSE 2.3 mph - N/A   Clear
1:00 AM 86.0 °F 86.1 °F 60.8 °F 43% 29.71 in - SSE 4.6 mph - N/A   Clear
2:00 AM 86 °F - 60 °F 31% 29.71 in 6 mi South 3.5 mph - -  
2:00 AM 86.0 °F 85.4 °F 59.0 °F 40% 29.71 in - South 3.5 mph - N/A   Clear
3:00 AM 84.2 °F 83.8 °F 59.0 °F 42% 29.71 in - South 2.3 mph - N/A   Clear
4:00 AM 82.4 °F 82.5 °F 59.0 °F 45% 29.71 in - South 2.3 mph - N/A   Clear
5:00 AM 82.4 °F 82.9 °F 60.8 °F 48% 29.71 in - SE 2.3 mph - N/A   Clear
6:00 AM 82.4 °F 82.5 °F 59.0 °F 45% 29.74 in - SSE 2.3 mph - N/A   Clear
7:00 AM 84.2 °F 83.8 °F 59.0 °F 42% 29.77 in - SSE 3.5 mph - N/A   Clear
8:00 AM 89 °F - 64 °F 34% 29.77 in 6 mi West 2.3 mph - -  
8:00 AM 87.8 °F 89.4 °F 64.4 °F 46% 29.77 in - West 2.3 mph - N/A   Clear
9:00 AM 93.2 °F 96.2 °F 66.2 °F 41% 29.77 in - West 2.3 mph - N/A   Clear
10:00 AM 95.0 °F 98.5 °F 66.2 °F 39% 29.77 in - WNW 2.3 mph - N/A   Clear
11:00 AM 98.6 °F 101.0 °F 64.4 °F 32% 29.77 in - WNW 2.3 mph - N/A   Clear
12:00 PM 102.2 °F 104.2 °F 62.6 °F 27% 29.77 in - WNW 3.5 mph - N/A   Clear
1:00 PM 104.0 °F 107.4 °F 64.4 °F 27% 29.74 in - West 3.5 mph - N/A   Clear
2:00 PM 104 °F - 61 °F 16% 29.70 in 6 mi WNW 3.5 mph - -  
2:00 PM 104.0 °F 105.3 °F 60.8 °F 24% 29.71 in - WNW 3.5 mph - N/A   Clear
3:00 PM 104.0 °F 105.3 °F 60.8 °F 24% 29.71 in - NW 9.2 mph - N/A   Clear
4:00 PM 104.0 °F 103.4 °F 57.2 °F 21% 29.68 in - WNW 5.8 mph - N/A   Clear
5:00 PM 104.0 °F 105.3 °F 60.8 °F 24% 29.68 in - NW 2.3 mph - N/A   Clear
6:00 PM 98.6 °F 100.0 °F 62.6 °F 30% 29.68 in - WNW 8.1 mph - N/A   Clear
7:00 PM 95.0 °F 95.2 °F 60.8 °F 32% 29.71 in - West 3.5 mph - N/A   Clear
8:00 PM 93 °F - 59 °F 22% 29.71 in 6 mi West 4.6 mph - -  
8:00 PM 93.2 °F 92.6 °F 59.0 °F 32% 29.71 in - West 4.6 mph - N/A   Clear
9:00 PM 91.4 °F 90.7 °F 59.0 °F 34% 29.74 in - WSW 2.3 mph - N/A   Clear
10:00 PM 89.6 °F 88.9 °F 59.0 °F 36% 29.74 in - Calm Calm - N/A   Clear
11:00 PM 87.8 °F 87.1 °F 59.0 °F 38% 29.74 in - Calm Calm - N/A   Clear